Tracking 27126 objects as of 30-Mar-2023
HD Live streaming from Space Station
objects crossing your sky now

COSMOS 2491 DEB

Track COSMOS 2491 DEB now!
10-day predictions


NORAD ID: 44998
Int'l Code: 2013-076T
Perigee: 1,353.9 km
Apogee: 1,486.7 km
Inclination: 82.5 °
Period: 114.1 minutes
Semi major axis: 7791 km
RCS: Unknown
Launch date: December 25, 2013
Source: Commonwealth of Independent States (former USSR) (CIS)
Launch site: PLESETSK MISSILE AND SPACE COMPLEX (PKMTR)

Note: This is SATELLITE DEBRIS
Your satellite tracking list
Your tracking list is empty




NASA's NSSDC Master Catalog

Two Line Element Set (TLE):
1 44998U 13076S   23089.44274137  .00007026  00000-0  38636-1 0  9997
2 44998  82.4742 155.0314 0085233 293.7254  65.4913 12.62364619148769
Source of the keplerian elements: AFSPC